星链-3923 (STARLINK-3923 )

导读 | 星芒AI

STARLINK-3923 是 SpaceX Starlink 项目中的一颗低轨通信卫星,属于第 11 批(Group 11)发射的 53 颗卫星之一,于 2020 年 11 月 11 日由猎鹰 9 号火箭送入近地轨道。该卫星采用先进的星间激光通信技术,旨在提供全球高速互联网服务,尤其服务于偏远地区。STARLINK-3923 运行在约 550 公里的轨道高度,设计寿命约 5 至 7 年,任务结束后将主动脱离轨道并安全再入大气层。

基本信息
目录编号:
52489
目录名称:
STARLINK-3923
国际标识:
2022-049AQ
轨道中心:
EARTH
卫星名称:
星链-3923
卫星全名:
星链-3923 (STARLINK-3923 )
卫星状态:
在轨 (已飞行1279 天)
发射日期:
2022-05-06 UTC
国别 :
美国 (US)
星等 :
--
轨道信息
数据来源 国际轨道数据
星历时间: 2025-11-04T10:18:06+0800
21小时前
查看轨道信息
半长轴: 6917.872km
偏心率: 0.0001355
轨道倾角: 53.217°
近地点辐角 92.950°
升交点赤经 262.934°
平近点角 267.165°
近地点: 538.799km
远地点: 540.675km
周期: 95.437分钟
每日圈数: 15.088429
详细信息
固有亮度:
5
最大亮度:
2.5
卫星平台:
Starlink v1.5
覆盖范围:
全球
运营商:
太空探索技术公司
运营商所在国:
美国
制造商(研发单位):
太空探索技术公司
制造商所在国:
美国
使用方式:
暂无
卫星简介
星链(Starlink)计划是由太空探索技术公司(SpaceX)提出的一个巨型低轨卫星互联网星座项目,计划在2019年至2024年间在太空搭建由约1.2万颗卫星组成的“星链”网络,其中1584颗将部署在地球上空550千米处的近地轨道,并从2020年开始工作。该卫星仍在工作。
2D轨道图
3D轨道图
轨道高度分析图
轨道倾角分析图
轨道综合分析图
查看轨道综合分析图